Vorticity
8 7 5 4 3 3 3 2 3 3 1 1 2 2 5 3 1 0 -4 2 5 5 7 4 -0 3 8 1 -0 0 6 10 -2 -3 6 10 4 -0 4 3 -1 -3 -0 2 3 1 -1 -1 0 3 3 -1 -2 2 6 3 2 1 1 3 6 7 7 7 7 6 7 8 8 8 7 5 4 4 4 3 5 6 4 2 1 4 3 3 4 5 7 8 7 6 7 7 6 5 4 4 5
10 11 8 6 4 4 3 3 3 2 2 1 1 -1 5 7 -0 -2 -4 2 6 4 7 10 5 -2 1 4 9 9 7 5 -0 6 9 3 0 3 5 2 2 -1 -2 2 3 1 -0 0 1 3 4 3 1 1 4 3 2 3 2 4 8 8 7 8 8 7 7 8 8 8 6 5 5 4 4 4 6 6 4 0 1 3 1 2 4 6 8 8 7 5 6 6 6 5 4 4 4
8 10 11 10 7 4 3 3 1 2 2 -2 -0 -0 2 4 3 5 1 4 3 -0 3 7 12 7 -1 -2 4 3 -1 3 6 8 5 3 5 7 5 0 3 1 -3 1 3 2 2 1 2 4 5 5 4 3 4 3 3 2 2 5 9 9 7 8 8 8 7 7 7 7 5 5 6 5 4 6 6 5 3 -1 2 4 1 3 5 7 10 9 7 5 5 6 6 5 4 4 4
7 7 8 11 10 6 5 2 -0 1 -2 -3 1 -0 0 1 5 8 5 5 -1 -3 3 3 9 13 7 -3 -3 2 2 3 5 6 5 7 6 4 3 2 4 2 -2 1 4 3 3 2 3 4 5 5 5 5 5 4 3 2 4 7 8 8 7 8 8 7 7 7 6 5 5 5 5 5 6 6 5 5 2 0 3 3 1 5 6 6 10 10 7 5 5 5 6 5 4 4 4
10 8 6 9 9 7 8 3 2 2 -2 4 6 2 2 -0 3 6 5 4 -0 0 1 3 7 9 11 6 -0 1 2 3 6 7 6 6 3 0 2 4 3 4 1 -1 4 6 3 3 3 3 4 5 5 6 5 5 3 3 7 9 7 6 7 8 7 7 6 5 5 4 4 5 4 5 6 6 4 4 2 1 2 0 3 7 6 6 10 11 8 6 5 4 5 5 5 4 3
9 10 7 7 5 5 9 4 4 5 4 8 7 8 6 -0 -0 3 9 4 0 6 3 3 7 6 7 8 4 -1 2 5 6 7 5 5 4 3 3 2 1 5 5 -2 1 6 5 3 2 3 4 5 6 7 5 4 3 4 9 9 5 5 6 8 8 6 5 4 4 4 5 5 4 5 5 5 4 3 2 2 1 -0 5 7 5 6 9 12 9 6 5 4 4 5 5 4 3
8 10 9 8 5 4 7 2 5 8 8 9 6 10 7 2 3 -1 5 2 -1 6 6 6 5 6 4 6 9 3 4 3 1 4 5 5 4 5 3 2 -0 2 4 1 1 3 5 3 3 4 5 6 7 6 4 2 3 6 10 7 3 5 5 7 8 5 5 4 4 4 5 5 4 4 4 5 4 2 1 0 -1 -0 5 6 5 6 8 11 10 6 5 4 4 4 5 4 4
6 9 10 10 7 5 5 3 6 7 6 9 8 11 8 4 6 3 2 -1 1 3 7 13 6 5 4 7 10 3 4 6 5 4 2 4 5 5 2 1 1 1 2 2 1 2 5 4 4 5 5 7 7 6 6 6 8 8 9 6 2 3 4 5 7 6 5 4 5 5 4 5 4 4 4 5 3 -0 0 -1 -3 -0 4 6 6 6 6 10 11 7 4 4 3 4 4 4 4
4 5 9 11 10 7 6 6 7 7 5 6 7 10 11 6 3 9 6 -3 3 4 7 14 6 5 4 7 8 3 6 5 6 5 4 3 1 4 4 5 5 2 4 6 4 2 4 4 3 4 5 8 8 8 7 8 9 7 7 5 2 4 4 4 7 7 6 4 4 5 5 5 4 3 4 4 2 -0 0 -1 -2 1 6 10 10 6 5 8 10 9 5 4 3 3 3 3 4
5 3 6 9 10 8 5 5 6 9 8 6 6 6 10 11 3 7 11 2 2 4 5 4 2 5 2 7 6 4 8 2 3 3 2 1 -2 3 5 6 5 5 8 8 5 3 5 3 1 4 6 9 8 4 3 6 8 8 6 3 4 7 6 4 8 7 4 4 5 6 5 5 4 3 5 4 1 1 0 -1 -0 3 10 17 14 7 5 6 9 11 8 5 3 3 3 3 3
7 5 4 4 6 7 4 4 5 7 8 6 6 5 6 11 5 4 12 8 1 2 7 2 -0 3 0 8 7 6 9 0 1 -0 -4 -2 -1 3 4 5 4 5 9 6 3 3 4 2 0 4 7 6 3 1 2 7 10 9 5 3 6 8 7 4 5 7 5 4 4 6 5 4 4 4 5 3 2 3 1 1 2 7 16 21 15 8 6 6 8 11 10 6 4 3 3 3 3
9 8 7 5 5 7 5 5 6 6 7 7 6 6 4 8 7 7 13 10 4 -1 2 3 1 4 1 3 1 5 13 3 0 -1 -4 -2 -1 2 1 2 3 5 5 2 2 1 2 1 0 4 6 3 -1 1 6 10 12 9 5 4 6 5 5 2 1 3 4 4 4 5 4 3 2 4 6 3 3 3 2 2 3 12 19 20 15 9 7 6 7 11 11 7 4 4 3 2 3
11 11 10 8 8 7 6 7 8 8 8 7 6 7 4 5 6 10 14 10 8 1 0 10 10 7 -0 -0 -1 2 14 11 5 5 4 3 -2 -1 1 1 2 5 3 -2 -1 0 3 0 0 4 4 2 -0 1 8 13 13 10 8 6 3 -0 -2 -1 -0 -1 -2 2 4 4 2 3 2 4 5 4 4 2 3 3 4 15 19 16 14 9 7 6 6 10 12 9 4 4 4 2 3
13 14 12 11 11 9 7 6 6 9 10 8 7 7 6 7 4 5 11 8 10 8 7 11 7 1 -2 0 3 3 11 15 12 11 12 11 5 1 1 3 1 3 3 -1 -1 1 2 -0 0 3 3 3 1 2 8 9 6 4 4 3 1 -3 -5 -1 3 5 1 -2 2 4 3 3 3 4 4 4 5 3 3 2 6 17 18 14 12 9 8 7 5 8 12 12 6 4 4 2 2
14 14 14 13 13 11 8 7 5 7 9 9 9 8 8 9 6 4 7 8 13 15 8 -2 -8 -3 2 1 3 2 4 12 14 12 13 13 9 3 -0 4 5 3 3 2 2 2 1 0 1 2 3 3 2 3 4 2 3 4 2 1 0 -2 -1 1 4 10 10 2 0 3 3 3 3 4 5 6 5 3 3 1 7 17 16 12 10 8 8 7 6 6 10 14 10 5 3 3 3
14 15 15 12 13 12 10 9 6 7 9 10 10 9 8 6 7 7 5 6 11 16 10 -0 -4 1 8 6 4 5 2 9 17 10 6 6 1 -5 -4 4 6 4 4 4 4 4 0 0 1 2 4 2 1 3 1 -0 2 7 7 3 1 0 0 1 3 10 13 9 3 3 4 3 3 5 5 6 5 3 2 1 7 16 16 12 9 8 8 7 6 5 7 13 14 9 3 3 3
14 15 15 13 14 15 12 11 9 7 8 9 9 8 8 5 6 7 5 4 7 12 11 9 5 1 8 9 3 8 4 6 20 12 2 6 3 -6 -7 -2 3 4 4 4 5 4 1 1 1 3 4 1 3 4 1 -0 -0 4 7 4 2 1 0 2 6 7 10 13 10 3 1 2 3 5 5 5 5 2 2 1 6 14 15 12 9 9 9 7 6 5 6 9 14 14 7 3 3
15 16 16 15 17 16 15 13 10 8 5 4 6 6 7 7 7 7 6 6 6 8 9 13 12 1 2 5 -1 4 3 1 15 16 4 -0 1 5 4 -1 -0 -1 0 5 9 6 0 0 1 3 2 0 3 3 1 1 -0 -0 3 4 3 2 3 6 8 5 5 11 15 7 -0 1 3 4 4 5 4 2 1 1 5 12 15 12 9 9 10 8 6 5 6 6 10 15 13 7 4
17 17 16 16 19 18 17 15 10 8 6 5 7 7 8 9 11 9 7 7 5 5 6 10 16 7 -3 0 4 5 4 2 8 14 13 4 0 8 6 -0 -2 -5 -2 6 7 4 0 -0 1 2 -0 -1 3 2 1 1 -1 -2 -1 2 -1 -2 -0 5 8 4 2 8 16 13 3 0 2 4 4 4 4 3 1 1 5 10 13 13 9 9 10 9 7 6 6 6 7 11 14 12 8
18 17 16 19 20 16 14 14 13 11 8 8 9 8 8 10 12 11 9 8 7 7 6 8 14 12 1 -1 5 8 4 1 4 4 9 14 13 15 7 -2 -8 -13 -6 -1 -1 0 0 1 1 2 0 -0 1 1 2 -0 -3 -2 -1 -1 -3 -3 -2 4 8 5 3 5 13 17 9 2 2 3 4 4 3 3 1 1 5 8 11 13 10 8 10 10 8 6 6 6 6 7 11 14 12
18 18 19 19 17 13 14 16 16 16 13 10 10 9 8 9 10 10 11 11 10 6 3 6 13 13 9 4 -1 5 6 -0 2 2 4 8 11 22 21 6 -12 -17 -8 -5 2 5 2 1 -0 1 2 0 0 1 1 -2 -2 -2 -1 -1 -3 -1 -2 2 8 7 5 4 9 17 15 5 0 3 4 4 3 2 1 1 5 7 9 12 12 8 8 11 10 7 6 6 7 6 7 11 14
18 19 18 16 15 14 17 19 18 18 18 16 12 10 7 7 8 9 10 11 9 3 2 7 10 11 13 12 -0 1 9 4 2 3 6 7 6 15 22 20 8 4 9 7 8 7 2 2 -1 -0 2 1 0 1 0 -1 -1 -2 -2 -1 -2 -1 -0 2 7 10 8 4 7 13 18 9 -0 2 4 3 2 1 1 1 4 6 8 11 12 10 7 9 12 11 7 7 7 6 6 8 11
16 17 15 15 17 15 15 18 18 16 16 17 14 12 10 7 7 9 9 10 7 4 8 9 7 9 11 13 5 -2 4 8 5 3 5 8 9 9 13 19 14 16 25 19 9 3 2 3 0 -0 -1 0 1 1 1 -1 -1 -2 -1 0 -1 -0 1 2 7 12 9 5 7 10 18 14 1 2 4 3 2 1 1 1 3 5 7 10 12 11 8 7 10 12 10 8 7 7 7 7 8
14 15 15 15 17 15 13 15 17 15 13 15 16 15 14 11 8 9 9 9 9 7 9 8 6 8 9 13 11 2 -1 4 5 4 3 3 7 6 7 14 17 29 33 19 8 3 3 3 1 1 -3 -1 0 -1 -0 -1 -0 -0 1 -1 -1 1 2 2 8 14 9 6 8 8 19 18 3 1 4 3 2 1 1 1 2 4 6 9 12 11 9 7 7 10 11 10 9 8 8 8 8
11 13 15 15 16 15 14 14 14 16 14 14 16 15 14 14 12 10 8 8 10 9 8 9 9 7 7 12 14 8 1 4 7 5 2 -0 2 3 5 12 20 26 18 7 8 6 4 4 3 2 -2 -2 -2 -1 0 0 0 1 0 -2 -0 2 1 4 10 13 10 8 9 9 20 20 4 1 4 3 2 1 1 1 2 4 5 7 10 11 10 9 7 7 9 9 9 9 10 10 9
10 11 15 14 15 15 15 14 13 15 15 14 15 15 14 13 15 12 8 9 10 10 8 9 11 8 6 9 13 12 3 3 9 7 6 2 -0 0 3 10 14 10 3 4 8 4 5 6 3 2 0 -2 -2 -0 1 -0 -0 0 0 -1 1 2 2 8 12 11 10 10 8 11 21 19 4 1 3 3 2 1 1 1 1 3 4 5 8 10 9 9 8 7 6 7 8 8 9 10 9
9 9 12 12 13 14 14 15 15 15 15 15 15 15 14 12 15 14 10 10 10 10 10 10 12 9 6 7 10 14 8 2 7 8 5 3 2 1 2 8 11 7 3 1 -0 -1 0 0 -0 0 0 0 -0 1 0 -1 -0 1 2 1 -0 0 6 12 11 10 12 10 8 14 23 16 5 2 3 3 3 2 1 1 1 2 3 4 6 8 8 8 8 8 6 6 7 7 7 7 8
7 8 9 10 11 11 13 13 14 16 15 14 15 14 14 12 13 14 12 11 10 10 11 10 11 10 8 7 8 13 12 2 2 6 2 3 5 4 4 7 7 4 1 -1 -0 1 -2 -3 -2 -2 -0 1 0 1 0 -1 1 3 2 -0 -1 2 11 14 11 11 13 10 8 17 23 14 5 3 3 3 3 3 1 1 1 2 4 4 5 7 8 7 6 7 6 6 6 6 6 6 6
8 9 9 11 11 11 13 13 14 15 14 14 15 16 14 13 13 13 15 14 10 11 12 10 12 13 10 7 7 10 14 7 -1 3 6 6 5 4 4 5 4 5 3 1 2 4 2 1 -1 -2 -1 -0 1 1 -0 -0 3 4 1 -1 -0 5 15 15 11 11 11 10 10 18 21 12 5 2 2 3 2 3 2 1 1 2 4 4 5 8 7 6 5 5 5 6 6 5 6 6 6
8 9 9 10 11 13 14 13 15 15 14 14 14 18 14 12 14 12 15 16 12 11 11 11 11 14 12 8 7 7 13 13 1 0 8 7 4 5 3 1 3 6 5 1 2 4 4 2 -1 -2 -1 -0 3 2 0 2 3 1 -2 -1 2 8 18 16 9 9 10 10 12 18 19 11 5 2 2 3 2 2 2 1 1 2 3 3 6 9 7 6 5 4 5 5 6 5 5 5 7
8 8 9 9 7 12 16 12 16 19 16 13 15 19 14 10 12 12 14 15 14 13 11 11 11 13 15 9 7 7 10 16 7 1 6 5 3 5 3 1 4 6 4 0 -0 1 2 2 0 -2 -2 2 4 2 1 1 0 -1 -3 -0 4 12 20 14 7 8 9 11 14 19 19 11 4 1 1 2 1 2 2 0 1 2 2 3 6 9 7 5 5 5 5 5 6 6 4 4 7
8 7 7 9 5 8 17 14 13 22 24 17 15 18 14 11 11 12 14 13 14 15 12 12 11 13 16 11 8 7 8 15 12 2 2 4 2 3 4 2 4 6 4 1 -2 -0 1 0 0 -3 -4 2 2 -0 -1 -1 -1 -2 -2 3 7 14 20 11 5 8 9 13 17 19 17 10 4 1 1 2 1 2 1 1 1 1 2 4 8 9 6 5 6 6 7 7 7 6 6 5 5
9 7 4 7 7 5 15 17 11 19 29 25 18 17 16 13 11 11 14 15 14 15 13 12 11 12 16 13 9 8 7 12 16 6 -1 4 3 2 5 3 3 5 5 2 -2 -2 -1 -1 0 -4 -5 -1 -2 -2 -2 -3 -1 -2 0 6 9 15 17 8 5 7 11 18 20 17 14 9 4 2 2 2 2 1 1 2 1 1 3 6 9 9 5 4 6 7 8 10 9 9 9 6 5
7 5 4 5 8 7 11 18 15 16 24 26 24 22 18 13 11 12 13 14 15 15 14 12 11 12 16 15 9 9 7 7 16 12 0 3 6 3 5 5 3 5 5 4 -0 -3 -2 0 1 -3 -5 -3 -3 -1 -1 -2 -0 -1 4 8 10 15 13 6 5 7 15 21 19 15 12 8 5 3 2 1 2 2 1 1 1 2 3 5 10 9 5 4 5 7 8 9 11 12 11 9 8
2 3 6 5 7 9 8 12 15 16 18 23 26 25 22 16 12 13 12 12 14 14 14 13 11 11 15 16 11 9 8 5 12 17 5 1 6 4 3 5 4 5 6 5 3 -1 -3 -0 1 -1 -2 -2 -0 1 -1 0 0 1 8 10 10 15 9 3 6 10 18 21 14 12 10 7 5 3 2 2 2 2 1 1 1 2 1 4 12 10 5 4 3 4 6 8 10 12 14 11 10
5 6 7 7 6 7 6 7 10 13 16 21 25 24 26 21 14 13 12 11 14 15 15 13 12 12 14 15 12 10 8 4 8 17 11 -1 2 6 2 3 4 4 6 6 5 3 -0 -1 -0 0 -0 0 2 1 1 2 0 6 13 11 13 15 5 2 8 13 19 17 11 9 8 7 6 4 3 2 1 1 0 0 1 2 0 5 13 11 6 4 2 2 5 6 7 10 14 13 11
9 7 6 5 4 5 5 6 9 12 12 17 21 25 31 26 16 14 12 10 12 14 15 14 12 10 13 15 12 11 8 5 5 14 16 2 -2 5 3 1 3 3 6 7 7 5 3 1 -0 1 2 2 1 1 2 -0 2 12 13 11 17 13 3 4 10 14 17 14 9 7 7 7 5 4 3 2 1 1 1 1 3 2 2 8 13 11 8 5 2 3 3 5 6 8 12 14 14
9 8 5 3 3 5 4 3 6 8 9 13 15 21 34 32 19 14 14 11 11 13 15 16 13 9 12 15 12 12 9 5 4 10 18 10 -3 -1 4 2 1 4 6 7 7 6 4 3 2 3 2 2 1 1 -0 -0 8 15 10 13 17 8 4 6 10 14 14 11 7 5 9 8 5 4 3 3 2 1 2 2 3 3 5 11 13 11 9 6 4 4 4 5 6 7 8 10 16
10 9 7 5 4 5 3 2 2 2 5 10 14 19 33 36 23 14 14 14 11 13 15 17 14 9 12 14 11 13 10 5 5 6 14 16 3 -4 1 3 2 4 5 6 5 4 4 5 3 3 3 1 1 -0 -1 5 15 13 11 16 12 6 6 6 10 13 9 11 9 5 7 8 8 8 5 3 3 2 3 2 2 5 8 12 14 12 9 7 6 4 4 6 6 7 7 7 12
11 9 6 4 3 3 2 2 3 3 3 8 12 19 33 38 27 17 15 14 11 11 15 17 14 10 11 13 10 12 11 5 5 6 9 16 12 0 -4 1 3 3 5 5 2 2 4 4 4 3 2 2 0 -2 2 12 16 11 12 13 7 7 7 5 11 11 9 15 13 4 3 6 10 12 8 5 3 3 4 4 4 7 11 13 14 12 9 7 7 5 4 6 7 8 8 7 8
10 7 4 1 1 5 5 4 4 1 3 8 9 20 38 39 29 20 14 15 15 12 13 16 15 11 10 13 11 11 11 6 5 6 7 12 15 10 -0 -2 1 4 7 5 3 4 4 4 4 1 0 1 -1 -0 10 17 13 9 10 9 7 9 6 6 10 10 10 15 13 7 3 4 8 9 8 6 4 4 4 6 7 9 12 13 12 10 8 7 6 5 5 9 13 11 8 7 6
10 8 4 3 7 8 5 6 8 4 2 4 4 20 40 40 31 24 16 16 17 12 14 17 14 10 10 12 12 11 11 7 5 6 7 8 14 16 8 -1 -2 2 6 5 3 3 3 3 1 0 1 -0 0 8 17 15 9 7 8 8 9 10 7 7 10 11 11 12 14 12 7 6 8 8 8 6 4 4 5 8 10 11 12 11 10 9 6 6 5 5 8 12 12 6 3 4 4
19 19 14 15 14 11 9 8 10 8 4 2 1 17 39 40 31 26 21 21 19 12 14 17 14 9 11 12 12 13 11 7 5 5 7 7 10 16 15 7 1 -1 1 1 1 0 -0 0 -0 1 1 1 9 18 16 10 7 7 6 8 10 10 8 7 9 12 11 10 12 13 11 10 9 7 7 5 5 7 8 10 10 10 10 9 9 9 6 6 7 6 8 7 1 -4 -1 3 5
19 18 18 18 11 9 15 14 12 9 4 5 3 14 44 47 28 24 26 23 19 15 14 17 14 10 11 13 11 13 12 8 6 5 7 7 8 12 15 15 11 4 -1 -3 -2 -1 -2 -0 2 3 4 11 20 17 10 9 7 6 7 10 10 9 7 6 8 11 11 10 9 11 14 12 6 5 6 6 8 10 10 9 9 9 9 9 9 8 8 8 9 8 6 3 -1 -1 4 7 8
14 12 13 15 12 13 17 17 18 15 12 17 17 24 46 43 23 26 31 21 17 16 14 16 14 9 11 13 12 13 12 8 7 6 7 8 8 11 13 16 18 12 7 3 1 2 4 7 6 6 14 21 18 9 8 10 6 6 9 10 10 8 6 6 8 10 10 11 12 12 13 11 8 8 9 10 9 8 8 8 8 9 8 8 8 7 9 9 10 11 9 7 6 7 9 9 11
14 11 9 11 15 16 12 7 6 9 13 16 24 34 41 35 23 26 31 25 19 15 13 14 11 8 12 14 12 14 12 8 7 6 7 9 9 12 13 14 16 17 14 11 9 11 14 13 9 13 22 18 8 6 9 9 6 7 10 10 10 8 6 7 7 9 10 13 15 14 11 10 10 11 10 8 7 7 7 7 8 8 7 6 8 9 11 12 13 12 11 10 8 9 9 8 10
14 12 13 14 16 13 10 9 6 11 15 15 27 35 34 36 29 23 30 28 18 14 14 12 9 9 13 15 14 13 11 8 6 7 8 10 11 11 12 13 14 15 13 13 15 18 15 11 12 18 18 8 4 8 9 7 7 8 10 11 9 7 7 6 6 10 12 12 12 10 9 9 9 9 8 6 6 6 7 7 7 6 6 8 11 14 14 14 14 14 13 11 8 8 7 7 9
14 16 19 18 15 10 9 16 15 16 18 24 41 38 29 37 30 23 27 23 17 18 16 12 8 11 14 16 14 12 11 7 5 7 9 10 11 9 11 14 13 10 12 15 17 15 9 8 13 14 8 3 6 8 8 9 9 9 12 11 8 7 7 6 7 10 12 10 8 8 8 8 7 6 6 6 6 6 6 6 6 6 9 12 13 13 10 9 10 10 12 12 11 9 8 9 10
16 16 18 16 15 12 12 15 13 15 20 33 46 35 28 30 23 25 23 14 22 24 17 14 9 11 17 17 14 11 10 7 4 7 11 11 9 10 13 13 12 12 15 17 14 8 5 8 10 5 1 3 6 8 10 11 9 9 12 11 8 8 6 6 8 10 11 9 8 8 8 7 6 6 6 6 6 6 6 6 7 10 12 11 10 7 4 6 9 11 11 13 13 10 9 9 10
21 20 16 13 15 18 21 16 7 14 28 41 40 24 29 31 20 30 28 13 21 20 14 14 8 12 19 16 13 11 9 7 6 9 11 10 9 11 14 12 12 14 14 13 8 3 4 8 7 2 1 4 7 10 11 10 8 9 12 12 9 7 6 6 8 10 11 9 8 9 7 6 5 5 5 5 6 7 7 8 9 10 9 8 8 6 3 6 13 13 12 15 16 14 12 10 9
20 23 15 14 21 18 15 13 15 25 30 35 28 11 28 42 26 28 33 22 21 18 14 11 8 16 20 15 13 11 8 6 7 10 10 9 11 11 11 11 12 12 10 7 3 3 7 9 5 1 2 6 10 11 9 8 8 8 11 12 9 7 6 6 8 11 11 8 7 6 5 5 4 5 5 6 7 7 8 9 8 10 9 7 8 9 11 16 19 16 12 13 15 16 16 12 7
20 25 18 24 30 19 11 16 29 35 23 18 16 7 21 34 26 29 34 28 23 20 18 12 11 19 18 14 13 8 8 8 8 10 8 8 11 9 9 11 10 7 5 3 3 6 9 8 4 2 4 9 11 10 8 8 7 7 11 12 8 6 6 7 9 11 10 7 6 4 4 5 4 5 6 6 8 8 8 8 9 11 9 5 6 9 13 18 18 15 13 12 12 14 17 15 10
20 25 24 27 27 18 14 18 26 24 11 6 12 22 27 20 24 36 33 26 23 20 18 13 15 21 16 13 13 8 7 10 10 8 7 8 8 8 9 9 6 4 3 4 6 7 6 3 4 4 6 10 11 9 7 7 6 7 11 11 8 6 6 8 10 10 7 4 4 4 3 4 4 5 7 7 8 8 7 8 10 8 5 5 6 6 8 11 12 13 13 11 12 13 15 17 15
23 25 20 16 15 14 11 15 25 17 6 5 12 31 35 18 20 30 27 29 26 19 18 16 17 20 16 12 11 9 7 9 11 7 5 8 6 7 8 6 4 4 3 4 5 6 3 1 4 5 7 11 11 9 6 6 6 7 11 10 7 7 7 9 10 8 5 4 4 3 2 4 5 5 6 7 8 7 6 8 7 3 4 8 7 6 7 8 10 13 12 10 10 10 12 14 13
19 14 12 15 17 20 18 16 22 18 10 15 26 32 21 11 16 17 24 36 28 20 20 18 20 17 13 13 10 7 9 9 9 6 4 6 6 7 7 5 5 4 3 4 4 5 2 2 4 4 8 12 10 8 5 5 6 8 10 9 7 8 8 9 10 6 5 4 3 3 3 4 6 6 6 7 8 8 7 7 5 4 8 8 6 7 9 7 7 9 10 10 11 11 11 10 9
10 5 14 23 18 18 21 13 11 14 14 20 33 26 2 9 26 14 18 35 27 24 26 18 20 16 9 13 11 7 10 9 6 5 5 6 6 7 6 5 4 2 2 2 1 2 0 2 5 6 9 11 9 8 5 4 7 9 9 8 7 9 8 9 9 6 5 5 3 3 4 5 6 6 7 7 8 8 6 6 4 6 8 6 5 7 7 6 7 8 10 12 13 14 15 15 13
14 9 10 11 6 9 17 18 14 15 23 28 24 10 -4 15 42 25 12 24 22 22 29 21 15 14 10 13 11 9 10 8 6 5 5 6 5 6 6 3 2 2 2 2 1 1 1 3 6 7 9 10 8 8 6 5 7 9 9 8 8 9 8 8 8 6 5 5 4 4 4 5 6 6 8 8 8 7 6 6 5 5 7 6 6 6 5 6 8 9 9 9 9 12 15 18 18
14 14 13 10 11 15 17 15 5 -1 28 40 6 -5 8 10 29 35 16 17 24 21 24 22 13 11 12 13 10 10 10 7 6 4 4 5 4 4 4 2 4 4 4 5 5 4 5 6 7 9 9 9 9 7 6 6 7 9 10 8 8 8 7 7 7 6 6 5 4 5 4 4 6 8 9 8 8 7 6 5 4 5 8 7 5 4 5 7 7 7 7 5 6 9 14 19 19
Height
5842 5843 5844 5846 5846 5848 5848 5850 5851 5851 5853 5853 5857 5862 5866 5867 5868 5871 5870 5871 5875 5875 5875 5875 5877 5877 5878 5879 5879 5880 5882 5883 5883 5883 5884 5885 5886 5886 5887 5888 5888 5889 5890 5891 5892 5892 5893 5893 5893 5893 5893 5893 5894 5893 5894 5893 5893 5892 5892 5891 5891 5891 5891 5891 5890 5890 5889 5889 5888 5888 5888 5887 5887 5887 5886 5886 5885 5885 5884 5883 5883 5882 5881 5880 5879 5878 5877 5876 5875 5874 5873 5872 5872 5871 5870 5869 5868
5837 5838 5840 5841 5842 5844 5842 5845 5845 5846 5847 5848 5853 5858 5863 5863 5864 5870 5867 5869 5873 5873 5874 5874 5876 5876 5877 5878 5880 5881 5881 5880 5880 5882 5883 5883 5884 5885 5886 5887 5887 5887 5889 5890 5891 5891 5891 5892 5892 5892 5893 5893 5893 5893 5893 5893 5893 5892 5891 5891 5890 5890 5890 5890 5890 5889 5889 5888 5888 5888 5887 5887 5887 5886 5886 5885 5885 5885 5884 5883 5883 5882 5881 5880 5879 5878 5877 5876 5875 5874 5873 5873 5872 5871 5870 5869 5868
5833 5834 5835 5836 5838 5839 5837 5838 5839 5841 5841 5842 5850 5855 5859 5858 5861 5868 5864 5865 5869 5869 5871 5872 5873 5874 5875 5877 5879 5879 5879 5879 5879 5881 5881 5882 5883 5884 5884 5886 5886 5886 5887 5888 5889 5890 5890 5891 5891 5891 5892 5892 5892 5892 5892 5892 5892 5891 5891 5890 5890 5889 5889 5889 5889 5889 5888 5888 5888 5887 5887 5887 5886 5886 5886 5885 5885 5884 5884 5883 5882 5882 5881 5880 5879 5878 5877 5876 5875 5874 5873 5873 5872 5871 5870 5870 5869
5828 5829 5830 5831 5832 5832 5832 5832 5834 5835 5834 5837 5846 5851 5853 5854 5858 5863 5861 5861 5863 5865 5867 5868 5870 5871 5873 5874 5876 5877 5878 5878 5879 5879 5879 5880 5881 5882 5883 5884 5885 5885 5886 5887 5888 5889 5889 5890 5890 5890 5890 5891 5891 5891 5891 5891 5891 5891 5890 5890 5889 5889 5889 5889 5888 5888 5888 5888 5887 5887 5887 5887 5886 5886 5886 5885 5885 5884 5884 5883 5882 5881 5881 5880 5879 5878 5877 5876 5875 5874 5873 5873 5872 5871 5870 5870 5869
5822 5824 5824 5826 5824 5826 5827 5825 5827 5828 5828 5834 5841 5846 5849 5849 5853 5859 5860 5857 5858 5862 5863 5865 5867 5869 5870 5871 5874 5874 5875 5876 5877 5878 5878 5879 5879 5881 5882 5883 5884 5885 5885 5885 5887 5888 5888 5889 5889 5889 5889 5890 5890 5890 5890 5890 5890 5890 5890 5889 5889 5888 5888 5888 5888 5888 5887 5887 5887 5887 5886 5886 5886 5886 5885 5885 5884 5884 5883 5883 5882 5881 5880 5879 5879 5878 5876 5875 5875 5874 5873 5872 5872 5871 5870 5870 5869
5817 5818 5819 5820 5818 5819 5820 5818 5820 5821 5825 5833 5835 5841 5845 5843 5847 5855 5858 5854 5854 5858 5859 5861 5863 5865 5867 5868 5871 5871 5872 5874 5875 5876 5876 5877 5878 5880 5881 5881 5883 5883 5883 5884 5885 5887 5887 5888 5888 5888 5888 5889 5889 5889 5889 5889 5889 5889 5889 5889 5889 5888 5887 5887 5887 5887 5887 5887 5886 5886 5886 5886 5886 5885 5885 5884 5884 5883 5883 5882 5881 5880 5880 5879 5878 5877 5876 5875 5874 5874 5873 5872 5872 5871 5871 5870 5869
5811 5811 5812 5813 5812 5812 5813 5812 5815 5817 5822 5829 5830 5836 5839 5836 5842 5850 5854 5853 5852 5855 5856 5857 5860 5862 5863 5866 5868 5869 5870 5872 5873 5873 5874 5875 5877 5878 5879 5880 5881 5882 5882 5883 5884 5885 5886 5887 5887 5887 5887 5887 5887 5888 5888 5888 5888 5888 5888 5888 5888 5887 5887 5887 5887 5887 5886 5886 5886 5885 5885 5885 5885 5885 5885 5884 5883 5883 5882 5882 5881 5880 5879 5878 5877 5876 5875 5875 5874 5873 5873 5872 5872 5872 5871 5870 5869
5805 5805 5805 5807 5806 5806 5806 5806 5810 5814 5819 5825 5825 5830 5834 5830 5835 5844 5849 5851 5850 5851 5854 5855 5856 5858 5860 5863 5864 5865 5867 5869 5871 5871 5872 5873 5875 5876 5878 5879 5880 5880 5881 5881 5882 5884 5885 5885 5886 5886 5886 5886 5886 5886 5887 5887 5887 5887 5887 5887 5887 5887 5887 5886 5886 5886 5886 5885 5885 5885 5885 5885 5885 5884 5884 5883 5883 5883 5882 5881 5880 5879 5878 5877 5876 5876 5875 5874 5873 5873 5872 5872 5871 5871 5871 5870 5869
5799 5798 5799 5800 5799 5799 5800 5801 5805 5810 5814 5819 5820 5824 5828 5827 5827 5837 5844 5847 5848 5847 5850 5852 5852 5854 5857 5860 5861 5863 5865 5866 5868 5869 5870 5871 5872 5874 5875 5877 5878 5879 5879 5880 5881 5882 5883 5884 5884 5884 5885 5885 5885 5885 5885 5886 5886 5886 5886 5886 5886 5886 5886 5886 5885 5885 5885 5885 5884 5884 5885 5884 5884 5884 5883 5883 5882 5882 5881 5880 5879 5878 5877 5876 5875 5875 5874 5873 5873 5872 5872 5871 5871 5871 5871 5870 5870
5791 5792 5793 5793 5793 5792 5793 5796 5800 5805 5810 5813 5816 5818 5820 5823 5820 5827 5838 5842 5845 5843 5845 5849 5849 5852 5854 5857 5858 5860 5863 5864 5865 5866 5867 5868 5870 5872 5873 5875 5876 5877 5877 5878 5879 5880 5882 5882 5883 5883 5883 5883 5884 5884 5884 5885 5885 5885 5885 5885 5885 5885 5885 5885 5885 5884 5884 5884 5884 5884 5884 5883 5883 5883 5882 5882 5881 5881 5880 5879 5878 5876 5876 5875 5874 5874 5873 5873 5872 5871 5871 5871 5870 5870 5870 5870 5870
5783 5785 5785 5785 5785 5786 5787 5792 5796 5801 5806 5807 5810 5811 5811 5817 5814 5819 5833 5838 5841 5840 5841 5844 5845 5850 5851 5854 5855 5857 5860 5861 5863 5863 5864 5865 5867 5869 5871 5872 5873 5874 5875 5876 5876 5878 5880 5880 5881 5881 5882 5882 5882 5883 5883 5883 5884 5884 5884 5884 5884 5884 5884 5884 5884 5884 5884 5883 5883 5883 5883 5882 5882 5882 5881 5881 5881 5880 5879 5878 5877 5875 5874 5873 5873 5872 5872 5872 5871 5871 5870 5870 5869 5869 5869 5869 5869
5775 5777 5778 5777 5779 5782 5785 5788 5792 5796 5799 5800 5803 5806 5806 5809 5809 5815 5826 5831 5836 5837 5837 5838 5842 5847 5847 5849 5850 5853 5856 5857 5860 5860 5861 5863 5864 5866 5868 5870 5871 5872 5872 5873 5874 5876 5878 5878 5879 5879 5880 5881 5881 5881 5881 5882 5882 5883 5883 5883 5883 5883 5883 5883 5883 5883 5883 5883 5882 5882 5881 5881 5881 5881 5880 5880 5880 5879 5878 5877 5876 5874 5873 5872 5871 5871 5871 5871 5870 5870 5870 5869 5869 5868 5868 5868 5868
5767 5769 5769 5770 5775 5778 5781 5782 5786 5790 5792 5794 5797 5800 5800 5801 5804 5812 5820 5824 5830 5834 5834 5835 5838 5840 5842 5846 5846 5850 5853 5853 5856 5856 5858 5859 5861 5863 5865 5867 5868 5869 5870 5870 5872 5874 5876 5876 5877 5878 5878 5879 5879 5880 5880 5881 5881 5882 5882 5882 5881 5882 5882 5883 5882 5882 5882 5882 5882 5881 5880 5880 5880 5880 5880 5879 5879 5878 5877 5876 5875 5873 5872 5871 5871 5870 5870 5870 5870 5869 5869 5869 5868 5868 5868 5868 5868
5759 5761 5761 5764 5770 5771 5773 5776 5780 5783 5784 5788 5791 5792 5792 5793 5799 5806 5811 5816 5823 5830 5832 5832 5832 5832 5837 5843 5843 5847 5848 5848 5851 5852 5854 5856 5858 5860 5861 5864 5865 5867 5867 5868 5869 5871 5874 5874 5875 5876 5877 5877 5878 5879 5879 5879 5880 5881 5881 5880 5880 5880 5881 5881 5881 5881 5881 5881 5881 5880 5880 5879 5879 5879 5879 5878 5878 5877 5876 5875 5874 5873 5871 5871 5870 5870 5869 5869 5869 5869 5869 5868 5868 5867 5867 5867 5867
5751 5752 5753 5757 5762 5762 5766 5770 5773 5775 5777 5783 5784 5781 5783 5788 5793 5799 5804 5809 5816 5824 5827 5827 5826 5827 5833 5838 5838 5841 5842 5843 5845 5847 5850 5852 5855 5857 5859 5861 5862 5864 5864 5865 5867 5869 5871 5872 5873 5874 5875 5876 5876 5877 5877 5878 5878 5879 5879 5879 5879 5879 5880 5880 5880 5880 5880 5880 5880 5879 5879 5879 5878 5878 5878 5878 5877 5876 5875 5875 5874 5872 5871 5870 5869 5869 5869 5869 5868 5868 5868 5868 5867 5867 5866 5866 5866
5742 5743 5746 5749 5753 5755 5759 5763 5766 5768 5772 5776 5772 5770 5776 5781 5786 5792 5798 5802 5808 5816 5819 5821 5824 5824 5828 5834 5833 5833 5837 5840 5842 5843 5846 5849 5851 5853 5856 5858 5859 5860 5861 5863 5865 5866 5868 5870 5871 5872 5873 5874 5875 5875 5876 5876 5877 5877 5878 5877 5877 5877 5878 5879 5879 5879 5879 5878 5879 5879 5879 5878 5878 5877 5877 5877 5876 5876 5875 5874 5873 5871 5870 5869 5869 5868 5868 5868 5868 5868 5867 5867 5867 5866 5866 5866 5865
5734 5735 5738 5742 5746 5748 5752 5757 5758 5760 5765 5765 5759 5761 5770 5776 5779 5785 5792 5794 5799 5809 5812 5817 5822 5821 5824 5829 5825 5825 5833 5837 5838 5840 5842 5844 5847 5849 5852 5855 5856 5857 5858 5860 5862 5864 5866 5867 5869 5870 5871 5872 5873 5873 5874 5875 5875 5876 5876 5876 5876 5876 5877 5877 5877 5877 5877 5877 5877 5878 5878 5877 5877 5877 5877 5876 5876 5875 5874 5873 5872 5871 5869 5869 5868 5868 5867 5867 5867 5867 5866 5866 5866 5866 5865 5865 5864
5725 5728 5731 5734 5739 5742 5745 5749 5746 5749 5754 5749 5748 5756 5764 5770 5772 5777 5784 5785 5791 5801 5805 5811 5817 5818 5820 5820 5816 5821 5829 5832 5834 5836 5838 5840 5843 5846 5848 5850 5853 5854 5855 5857 5860 5862 5863 5865 5867 5868 5869 5870 5871 5871 5872 5873 5873 5874 5875 5875 5875 5875 5875 5875 5876 5876 5876 5876 5876 5877 5877 5876 5876 5876 5876 5876 5875 5874 5873 5872 5871 5870 5869 5868 5867 5867 5866 5866 5866 5865 5865 5865 5865 5865 5864 5864 5864
5718 5720 5722 5728 5733 5734 5735 5736 5733 5738 5742 5739 5744 5753 5758 5764 5768 5770 5775 5780 5786 5793 5799 5806 5811 5813 5814 5811 5811 5818 5824 5827 5830 5832 5834 5836 5839 5843 5845 5846 5849 5850 5853 5854 5856 5859 5861 5862 5864 5866 5867 5868 5869 5869 5870 5871 5871 5872 5873 5873 5873 5874 5874 5874 5874 5874 5874 5874 5874 5875 5875 5875 5875 5875 5875 5875 5874 5873 5872 5871 5871 5869 5868 5867 5866 5865 5865 5865 5865 5864 5864 5864 5864 5863 5863 5863 5863
5711 5712 5716 5722 5724 5721 5721 5724 5725 5730 5734 5737 5742 5748 5752 5758 5762 5764 5768 5774 5781 5786 5794 5801 5805 5808 5807 5804 5809 5814 5819 5823 5826 5829 5831 5833 5836 5840 5842 5843 5846 5848 5849 5851 5853 5856 5858 5860 5862 5864 5865 5866 5867 5868 5868 5869 5869 5870 5871 5872 5872 5872 5872 5872 5872 5872 5872 5872 5872 5873 5874 5874 5874 5874 5874 5874 5873 5872 5871 5870 5869 5869 5867 5866 5865 5865 5864 5863 5863 5863 5862 5862 5862 5862 5862 5862 5862
5703 5705 5711 5713 5709 5709 5713 5718 5720 5724 5730 5733 5736 5741 5745 5749 5754 5758 5761 5766 5775 5783 5790 5795 5798 5801 5799 5798 5805 5811 5815 5820 5823 5827 5828 5830 5834 5837 5840 5840 5842 5844 5846 5847 5849 5852 5856 5858 5860 5862 5863 5864 5865 5866 5866 5867 5867 5868 5869 5869 5869 5870 5870 5870 5870 5869 5869 5869 5870 5871 5872 5873 5873 5873 5873 5873 5872 5871 5870 5869 5868 5868 5867 5866 5865 5864 5863 5863 5862 5862 5861 5861 5861 5861 5861 5860 5860
5697 5700 5703 5701 5700 5706 5710 5712 5714 5719 5724 5725 5728 5732 5735 5740 5746 5750 5753 5759 5769 5776 5777 5781 5785 5789 5791 5792 5800 5807 5811 5816 5820 5823 5825 5827 5830 5834 5836 5837 5838 5840 5842 5845 5846 5849 5854 5856 5858 5859 5861 5862 5863 5863 5864 5865 5865 5866 5867 5867 5867 5868 5868 5868 5868 5867 5867 5867 5868 5869 5870 5871 5872 5872 5872 5872 5871 5870 5869 5868 5867 5867 5866 5865 5864 5864 5863 5862 5861 5861 5860 5860 5859 5859 5859 5859 5859
5692 5693 5694 5694 5697 5702 5704 5705 5707 5712 5715 5716 5720 5724 5727 5733 5739 5743 5747 5752 5760 5764 5765 5770 5777 5783 5786 5788 5795 5802 5805 5809 5813 5817 5821 5823 5825 5829 5832 5833 5835 5836 5839 5842 5844 5847 5850 5853 5855 5857 5858 5859 5860 5861 5862 5863 5864 5864 5865 5865 5865 5865 5866 5866 5866 5865 5865 5865 5866 5867 5868 5869 5870 5871 5871 5870 5869 5868 5868 5867 5866 5866 5866 5865 5864 5863 5862 5861 5861 5860 5860 5859 5858 5858 5858 5858 5858
5686 5687 5688 5690 5692 5695 5696 5697 5700 5703 5706 5708 5712 5717 5721 5726 5731 5735 5739 5744 5750 5756 5760 5765 5773 5780 5782 5785 5793 5799 5801 5804 5808 5812 5816 5818 5821 5824 5827 5829 5831 5833 5835 5839 5841 5844 5847 5850 5852 5854 5856 5856 5858 5859 5860 5861 5861 5862 5863 5863 5863 5863 5863 5863 5863 5863 5863 5863 5864 5865 5866 5868 5868 5869 5869 5868 5868 5867 5866 5866 5865 5865 5865 5864 5863 5862 5861 5860 5860 5860 5859 5858 5858 5857 5857 5857 5856
5681 5682 5683 5686 5687 5689 5690 5691 5693 5696 5699 5702 5705 5710 5714 5718 5722 5725 5731 5738 5744 5751 5755 5758 5766 5774 5776 5781 5789 5793 5797 5800 5803 5807 5810 5812 5815 5818 5822 5824 5826 5829 5833 5836 5839 5842 5845 5847 5850 5851 5853 5854 5855 5856 5857 5858 5859 5860 5861 5861 5861 5861 5861 5861 5861 5861 5861 5861 5862 5864 5864 5865 5866 5867 5867 5867 5866 5866 5865 5864 5864 5864 5863 5863 5862 5861 5860 5859 5859 5859 5858 5857 5857 5856 5856 5855 5855
5677 5678 5679 5681 5682 5683 5684 5685 5687 5690 5693 5695 5699 5703 5707 5711 5713 5716 5725 5733 5739 5745 5748 5751 5759 5766 5769 5775 5782 5786 5791 5796 5799 5802 5805 5808 5810 5814 5818 5821 5823 5826 5830 5834 5837 5840 5842 5845 5847 5848 5850 5851 5852 5854 5855 5856 5857 5858 5858 5859 5859 5859 5858 5858 5858 5858 5858 5859 5860 5862 5862 5863 5864 5865 5865 5865 5865 5864 5863 5863 5863 5862 5862 5862 5861 5860 5859 5858 5858 5857 5857 5856 5856 5855 5855 5854 5854
5673 5674 5674 5676 5676 5678 5678 5679 5682 5685 5688 5689 5693 5696 5700 5705 5704 5709 5720 5726 5732 5736 5739 5744 5752 5759 5763 5769 5775 5780 5786 5791 5794 5798 5801 5804 5807 5811 5815 5818 5821 5824 5827 5831 5834 5838 5840 5842 5844 5845 5847 5848 5850 5851 5853 5854 5855 5855 5856 5856 5856 5856 5856 5855 5855 5856 5856 5857 5859 5860 5860 5861 5862 5863 5863 5863 5863 5863 5862 5862 5861 5861 5861 5860 5860 5859 5858 5857 5857 5856 5856 5855 5854 5854 5853 5853 5852
5668 5669 5670 5671 5672 5673 5673 5674 5676 5679 5682 5684 5686 5688 5693 5697 5697 5703 5713 5718 5723 5727 5732 5739 5746 5753 5756 5762 5769 5774 5780 5785 5789 5793 5796 5800 5804 5808 5812 5816 5819 5822 5825 5828 5831 5834 5837 5839 5841 5842 5844 5846 5847 5849 5850 5851 5852 5852 5853 5854 5854 5854 5853 5853 5853 5853 5854 5855 5857 5857 5858 5859 5860 5861 5861 5861 5861 5861 5860 5860 5860 5859 5859 5859 5858 5858 5857 5856 5855 5855 5854 5854 5853 5853 5852 5852 5851
5662 5664 5665 5665 5666 5667 5668 5668 5670 5673 5676 5678 5680 5681 5687 5692 5693 5698 5706 5713 5717 5721 5727 5733 5739 5746 5750 5756 5763 5768 5774 5779 5784 5789 5793 5797 5801 5804 5809 5812 5816 5819 5822 5825 5828 5832 5835 5836 5838 5840 5842 5843 5845 5846 5848 5849 5849 5850 5851 5851 5851 5852 5851 5851 5851 5851 5852 5853 5855 5855 5856 5857 5858 5859 5859 5860 5859 5859 5859 5858 5858 5858 5858 5857 5857 5856 5855 5855 5854 5853 5853 5852 5852 5851 5851 5850 5850
5658 5659 5660 5660 5661 5661 5662 5664 5666 5668 5670 5672 5673 5674 5682 5687 5688 5692 5699 5708 5712 5715 5721 5727 5733 5740 5744 5750 5757 5763 5768 5773 5780 5785 5789 5793 5797 5800 5804 5807 5811 5815 5818 5821 5825 5829 5832 5833 5836 5838 5839 5841 5842 5844 5845 5846 5847 5847 5848 5848 5849 5849 5849 5850 5849 5849 5850 5852 5852 5853 5853 5855 5856 5857 5858 5858 5858 5857 5857 5857 5857 5856 5856 5856 5855 5854 5854 5853 5853 5852 5851 5851 5850 5850 5849 5849 5848
5653 5654 5654 5655 5657 5656 5656 5659 5662 5663 5664 5667 5667 5668 5677 5681 5681 5686 5693 5701 5705 5709 5715 5721 5728 5733 5738 5744 5751 5757 5762 5769 5776 5780 5784 5788 5792 5796 5800 5803 5808 5811 5815 5819 5823 5826 5828 5831 5833 5835 5837 5839 5840 5841 5842 5843 5844 5844 5845 5845 5846 5847 5847 5848 5848 5848 5848 5849 5850 5850 5851 5853 5854 5855 5856 5856 5856 5856 5856 5855 5855 5855 5854 5854 5854 5853 5852 5852 5851 5850 5849 5849 5849 5848 5847 5847 5847
5648 5649 5649 5650 5652 5652 5651 5654 5656 5657 5657 5660 5660 5661 5670 5675 5677 5681 5686 5694 5699 5703 5709 5715 5722 5726 5732 5738 5744 5751 5758 5764 5770 5774 5778 5782 5787 5792 5795 5800 5804 5808 5812 5815 5819 5822 5825 5828 5830 5832 5834 5835 5836 5838 5839 5840 5841 5841 5842 5843 5843 5844 5845 5846 5845 5846 5846 5847 5848 5848 5849 5851 5852 5853 5853 5854 5854 5854 5854 5853 5853 5853 5853 5853 5852 5851 5850 5850 5849 5849 5848 5847 5847 5846 5845 5845 5845
5643 5643 5644 5645 5647 5648 5647 5646 5649 5651 5651 5652 5652 5654 5662 5669 5671 5674 5680 5689 5694 5696 5702 5709 5715 5720 5726 5732 5738 5745 5753 5759 5764 5769 5773 5778 5783 5787 5792 5796 5800 5804 5808 5812 5815 5819 5822 5824 5826 5828 5830 5832 5833 5835 5837 5837 5838 5839 5839 5840 5840 5842 5843 5843 5843 5843 5844 5845 5845 5846 5848 5849 5850 5851 5851 5852 5852 5852 5852 5852 5851 5851 5851 5851 5850 5849 5848 5848 5847 5847 5846 5845 5845 5844 5843 5843 5843
5637 5638 5640 5641 5642 5643 5642 5640 5641 5644 5645 5645 5645 5646 5654 5662 5664 5667 5676 5683 5686 5689 5696 5703 5708 5714 5720 5725 5732 5740 5748 5753 5758 5764 5769 5774 5778 5783 5788 5792 5796 5800 5804 5808 5812 5815 5818 5820 5822 5825 5827 5828 5830 5832 5834 5835 5836 5836 5836 5837 5838 5839 5840 5840 5840 5841 5842 5842 5843 5844 5846 5847 5848 5848 5849 5850 5850 5850 5850 5850 5850 5850 5849 5849 5848 5847 5846 5846 5845 5844 5844 5843 5843 5842 5841 5841 5841
5632 5633 5635 5637 5638 5638 5637 5636 5635 5637 5639 5638 5638 5640 5646 5653 5657 5662 5670 5675 5677 5682 5690 5697 5703 5708 5714 5720 5727 5735 5742 5747 5753 5759 5765 5770 5774 5778 5783 5787 5792 5796 5800 5805 5808 5811 5813 5816 5819 5821 5823 5825 5827 5830 5831 5832 5833 5834 5834 5834 5835 5837 5837 5838 5838 5839 5839 5840 5841 5842 5844 5845 5846 5846 5847 5847 5848 5848 5848 5848 5848 5848 5847 5847 5846 5845 5844 5844 5843 5842 5842 5841 5840 5839 5839 5838 5838
5627 5629 5630 5632 5633 5634 5632 5631 5631 5631 5632 5632 5633 5634 5637 5645 5651 5655 5662 5666 5670 5677 5683 5691 5698 5703 5709 5715 5722 5729 5736 5742 5748 5754 5759 5764 5769 5773 5778 5783 5788 5793 5797 5801 5804 5807 5809 5812 5815 5818 5821 5822 5825 5827 5829 5830 5831 5831 5831 5832 5833 5834 5835 5835 5836 5836 5837 5838 5839 5840 5841 5842 5843 5844 5845 5845 5846 5846 5846 5846 5846 5846 5845 5845 5844 5843 5842 5842 5841 5840 5839 5838 5838 5837 5836 5835 5835
5623 5624 5625 5627 5628 5629 5627 5625 5626 5626 5626 5627 5629 5627 5629 5638 5644 5648 5654 5658 5664 5671 5677 5685 5693 5699 5703 5708 5715 5723 5730 5737 5743 5748 5753 5759 5764 5768 5773 5779 5784 5789 5793 5797 5800 5803 5806 5809 5812 5815 5818 5820 5823 5825 5826 5828 5828 5829 5829 5829 5831 5832 5832 5833 5834 5834 5835 5835 5836 5838 5839 5840 5841 5842 5843 5843 5844 5844 5844 5844 5844 5844 5843 5843 5842 5841 5840 5839 5839 5838 5837 5836 5835 5835 5834 5833 5833
5618 5619 5620 5622 5623 5623 5622 5620 5621 5621 5620 5621 5623 5621 5622 5630 5637 5641 5645 5650 5659 5667 5672 5680 5687 5691 5695 5701 5709 5717 5725 5732 5737 5742 5747 5753 5758 5763 5769 5774 5780 5785 5790 5794 5797 5800 5803 5806 5809 5812 5815 5818 5821 5822 5824 5825 5826 5826 5827 5827 5828 5829 5830 5831 5832 5832 5832 5833 5834 5835 5836 5837 5839 5840 5840 5841 5841 5842 5842 5842 5842 5841 5841 5840 5840 5839 5838 5837 5836 5835 5835 5834 5833 5832 5831 5831 5833
5612 5613 5615 5617 5618 5617 5616 5616 5615 5615 5615 5616 5616 5615 5617 5624 5631 5634 5637 5644 5654 5660 5665 5673 5680 5685 5688 5694 5703 5712 5719 5726 5731 5736 5742 5748 5753 5758 5765 5770 5776 5782 5787 5791 5793 5796 5799 5802 5806 5809 5813 5816 5818 5819 5821 5822 5823 5824 5825 5825 5826 5827 5828 5829 5829 5830 5830 5830 5831 5833 5834 5835 5836 5837 5838 5839 5839 5839 5839 5839 5839 5839 5839 5838 5837 5836 5836 5835 5834 5833 5833 5832 5831 5830 5830 5830 5831
5606 5607 5609 5612 5612 5610 5611 5611 5608 5609 5611 5611 5611 5610 5612 5618 5624 5627 5631 5639 5646 5652 5658 5666 5673 5680 5683 5689 5698 5706 5713 5721 5726 5731 5737 5743 5748 5754 5761 5766 5772 5778 5783 5787 5789 5792 5796 5800 5804 5807 5811 5814 5815 5817 5819 5819 5820 5821 5822 5823 5823 5824 5826 5827 5828 5828 5828 5828 5828 5830 5832 5833 5834 5835 5836 5836 5837 5837 5837 5837 5837 5836 5836 5835 5834 5834 5833 5833 5832 5831 5831 5830 5829 5828 5828 5829 5829
5601 5602 5604 5605 5606 5605 5606 5606 5603 5604 5605 5607 5607 5604 5605 5612 5617 5621 5626 5632 5639 5646 5652 5659 5667 5674 5678 5684 5692 5699 5708 5715 5721 5727 5733 5738 5743 5750 5757 5763 5768 5774 5780 5784 5786 5789 5793 5797 5801 5805 5808 5810 5812 5814 5815 5816 5817 5819 5820 5820 5821 5822 5823 5825 5825 5826 5826 5826 5827 5829 5830 5831 5832 5833 5834 5834 5834 5834 5834 5834 5834 5834 5833 5833 5832 5831 5831 5830 5830 5829 5828 5828 5827 5827 5826 5826 5825
5595 5597 5598 5599 5600 5599 5600 5600 5599 5599 5600 5603 5602 5596 5597 5607 5611 5614 5620 5625 5633 5641 5647 5654 5662 5668 5672 5678 5686 5695 5702 5710 5716 5723 5728 5733 5740 5747 5754 5759 5765 5771 5777 5780 5783 5787 5791 5795 5799 5802 5805 5807 5809 5811 5812 5813 5815 5816 5817 5818 5818 5820 5821 5822 5822 5823 5824 5825 5826 5827 5828 5829 5830 5831 5831 5832 5832 5832 5832 5832 5831 5831 5830 5830 5830 5829 5829 5828 5827 5827 5826 5825 5825 5825 5824 5823 5823
5591 5594 5593 5592 5593 5594 5594 5595 5594 5594 5595 5597 5596 5591 5592 5600 5605 5609 5614 5620 5629 5636 5641 5649 5656 5661 5667 5673 5682 5691 5698 5706 5712 5718 5724 5729 5737 5743 5749 5754 5761 5768 5774 5776 5779 5783 5788 5793 5796 5799 5802 5804 5807 5808 5808 5810 5812 5813 5814 5815 5816 5817 5818 5819 5819 5821 5822 5823 5824 5825 5826 5827 5828 5829 5829 5829 5830 5830 5829 5829 5828 5828 5827 5827 5827 5827 5826 5826 5826 5825 5824 5823 5823 5823 5822 5821 5821
5587 5589 5587 5585 5586 5588 5589 5590 5589 5588 5588 5589 5590 5587 5587 5593 5599 5603 5608 5614 5622 5629 5636 5644 5650 5656 5663 5669 5678 5686 5694 5703 5709 5714 5720 5726 5733 5740 5745 5751 5759 5765 5770 5772 5776 5781 5786 5790 5793 5796 5799 5801 5804 5804 5805 5807 5809 5810 5812 5813 5813 5814 5816 5816 5817 5819 5820 5821 5822 5823 5824 5825 5826 5827 5827 5827 5827 5827 5826 5826 5826 5826 5825 5825 5825 5825 5825 5824 5824 5823 5822 5821 5821 5821 5820 5819 5819
5582 5582 5579 5579 5581 5583 5584 5584 5583 5584 5582 5581 5583 5583 5582 5587 5593 5597 5601 5607 5615 5624 5632 5639 5646 5653 5658 5665 5673 5682 5691 5699 5706 5712 5718 5724 5731 5737 5742 5749 5755 5761 5765 5768 5774 5779 5783 5786 5789 5793 5796 5799 5800 5801 5803 5805 5806 5808 5809 5810 5811 5812 5813 5814 5815 5817 5818 5819 5819 5820 5822 5823 5824 5824 5824 5825 5824 5824 5824 5824 5824 5824 5823 5823 5823 5823 5823 5822 5821 5820 5820 5819 5819 5818 5818 5818 5817
5575 5574 5573 5575 5576 5578 5579 5578 5579 5579 5575 5573 5577 5579 5578 5580 5586 5591 5596 5604 5614 5622 5629 5635 5641 5647 5653 5661 5670 5678 5688 5696 5703 5709 5716 5722 5729 5734 5740 5746 5752 5756 5761 5765 5771 5776 5779 5783 5786 5790 5794 5796 5796 5798 5800 5802 5804 5806 5807 5807 5809 5810 5811 5812 5813 5815 5816 5817 5818 5819 5820 5820 5821 5822 5822 5822 5821 5822 5822 5822 5822 5822 5822 5821 5821 5821 5821 5820 5819 5818 5817 5817 5816 5815 5815 5815 5814
5568 5568 5570 5571 5571 5574 5574 5574 5576 5573 5567 5568 5572 5575 5574 5573 5580 5587 5593 5603 5613 5619 5625 5630 5636 5642 5649 5658 5667 5676 5685 5692 5699 5706 5712 5719 5725 5731 5736 5742 5747 5752 5757 5762 5767 5772 5776 5779 5783 5787 5790 5792 5793 5796 5798 5800 5802 5803 5804 5805 5806 5808 5809 5810 5812 5813 5814 5815 5816 5816 5817 5818 5819 5819 5819 5819 5819 5820 5821 5821 5820 5820 5819 5819 5820 5820 5819 5817 5816 5815 5815 5814 5813 5812 5812 5812 5812
5563 5563 5565 5566 5567 5570 5570 5571 5571 5565 5562 5566 5569 5570 5568 5567 5575 5583 5589 5599 5607 5614 5620 5625 5631 5639 5647 5656 5664 5673 5681 5689 5696 5703 5709 5716 5721 5727 5733 5738 5743 5748 5754 5759 5764 5769 5773 5776 5781 5785 5787 5788 5791 5794 5796 5798 5799 5800 5802 5803 5804 5805 5807 5808 5810 5811 5812 5813 5813 5814 5815 5816 5816 5816 5816 5816 5817 5819 5819 5819 5818 5817 5817 5818 5818 5817 5815 5814 5813 5813 5812 5811 5810 5810 5809 5809 5808
5558 5559 5560 5561 5564 5565 5565 5566 5566 5561 5561 5564 5565 5565 5563 5564 5573 5580 5584 5592 5599 5607 5616 5621 5629 5637 5644 5653 5662 5670 5678 5686 5693 5700 5706 5712 5718 5724 5730 5735 5740 5746 5752 5757 5761 5766 5770 5774 5779 5782 5784 5786 5789 5791 5793 5795 5796 5798 5799 5801 5802 5803 5804 5806 5807 5809 5809 5810 5811 5812 5813 5814 5814 5814 5814 5814 5816 5817 5817 5816 5815 5815 5816 5816 5815 5813 5812 5812 5811 5810 5809 5808 5808 5807 5807 5806 5805
5554 5555 5556 5558 5560 5561 5562 5563 5562 5560 5561 5562 5561 5562 5560 5563 5571 5577 5582 5589 5595 5604 5612 5618 5626 5635 5643 5652 5660 5667 5675 5684 5691 5697 5703 5710 5716 5722 5728 5733 5738 5744 5749 5754 5759 5763 5767 5772 5777 5779 5781 5784 5786 5788 5790 5792 5794 5795 5797 5798 5799 5801 5802 5804 5805 5806 5807 5808 5809 5810 5811 5811 5811 5811 5812 5813 5815 5816 5814 5813 5813 5814 5814 5813 5812 5811 5810 5809 5808 5807 5806 5805 5804 5804 5803 5803 5803
5550 5552 5553 5554 5557 5558 5559 5560 5560 5560 5560 5560 5560 5560 5559 5564 5572 5578 5584 5591 5597 5605 5611 5617 5625 5633 5642 5650 5657 5665 5674 5682 5689 5695 5701 5708 5714 5721 5726 5731 5737 5742 5747 5751 5756 5760 5765 5771 5775 5777 5779 5781 5783 5785 5788 5789 5791 5793 5794 5796 5797 5798 5800 5802 5803 5804 5805 5806 5807 5808 5809 5808 5808 5808 5810 5812 5813 5813 5812 5811 5811 5812 5812 5812 5810 5810 5809 5807 5806 5805 5804 5803 5802 5801 5800 5800 5800
5548 5549 5551 5552 5555 5557 5558 5558 5558 5559 5557 5557 5559 5559 5561 5568 5575 5580 5584 5590 5598 5605 5611 5617 5625 5632 5640 5648 5655 5664 5673 5681 5687 5693 5700 5706 5713 5719 5725 5730 5735 5739 5744 5749 5754 5759 5764 5769 5773 5775 5777 5779 5780 5782 5785 5787 5788 5790 5792 5793 5795 5796 5798 5799 5801 5802 5803 5804 5806 5806 5806 5805 5805 5807 5808 5810 5811 5811 5809 5809 5809 5810 5811 5810 5808 5807 5807 5806 5804 5803 5801 5800 5799 5798 5797 5797 5797
5546 5548 5549 5551 5553 5555 5556 5556 5557 5557 5557 5558 5559 5561 5566 5572 5577 5581 5586 5590 5597 5604 5609 5616 5624 5632 5639 5646 5654 5663 5671 5679 5685 5691 5698 5705 5712 5718 5723 5728 5733 5737 5742 5748 5753 5759 5764 5768 5771 5772 5774 5776 5777 5780 5782 5784 5786 5788 5790 5791 5793 5794 5796 5797 5798 5800 5801 5802 5803 5803 5803 5802 5803 5805 5806 5808 5809 5808 5806 5807 5808 5809 5809 5807 5806 5805 5804 5804 5802 5801 5799 5798 5797 5796 5795 5794 5793
5546 5547 5549 5550 5552 5553 5554 5555 5556 5557 5558 5560 5562 5565 5569 5574 5579 5584 5588 5591 5597 5603 5608 5615 5624 5631 5638 5645 5653 5662 5670 5677 5683 5690 5698 5704 5711 5716 5721 5726 5731 5737 5743 5748 5753 5757 5762 5765 5767 5769 5771 5772 5774 5777 5779 5781 5783 5785 5787 5789 5791 5792 5794 5795 5796 5798 5799 5800 5801 5800 5799 5800 5801 5803 5804 5806 5807 5805 5804 5805 5807 5807 5806 5805 5804 5803 5802 5801 5800 5799 5797 5796 5794 5793 5792 5792 5791
5544 5545 5547 5549 5550 5552 5553 5554 5556 5558 5559 5562 5565 5568 5573 5577 5580 5583 5586 5591 5597 5603 5608 5616 5623 5630 5637 5645 5653 5662 5669 5676 5682 5690 5696 5703 5709 5714 5719 5725 5730 5736 5741 5746 5750 5754 5758 5761 5763 5766 5768 5769 5771 5774 5777 5778 5781 5783 5785 5787 5788 5790 5792 5793 5794 5795 5797 5798 5798 5797 5797 5798 5800 5800 5802 5803 5804 5803 5803 5804 5805 5805 5804 5803 5802 5801 5800 5799 5798 5796 5795 5793 5792 5791 5790 5789 5788
5544 5545 5547 5549 5551 5552 5553 5555 5557 5559 5561 5563 5567 5571 5575 5578 5579 5581 5584 5590 5597 5602 5609 5616 5623 5630 5637 5645 5653 5661 5668 5675 5681 5688 5695 5701 5707 5713 5719 5724 5730 5735 5739 5743 5747 5752 5755 5758 5760 5763 5765 5767 5769 5772 5775 5776 5779 5781 5783 5785 5786 5788 5789 5791 5792 5793 5795 5796 5795 5794 5795 5796 5797 5798 5800 5801 5802 5801 5801 5802 5803 5803 5802 5801 5801 5800 5798 5797 5796 5794 5792 5791 5789 5788 5787 5786 5785
5546 5547 5548 5550 5551 5552 5555 5557 5559 5561 5562 5564 5569 5574 5576 5577 5579 5581 5586 5591 5596 5602 5608 5615 5622 5629 5636 5645 5653 5661 5668 5674 5681 5688 5694 5701 5706 5712 5718 5723 5728 5732 5736 5741 5745 5749 5752 5755 5758 5760 5762 5765 5767 5770 5772 5775 5777 5780 5781 5783 5784 5786 5787 5789 5790 5791 5793 5793 5793 5792 5793 5794 5795 5796 5798 5799 5800 5800 5800 5800 5801 5800 5800 5799 5799 5798 5796 5795 5794 5792 5791 5789 5788 5786 5784 5783 5782
5548 5548 5549 5550 5552 5554 5557 5559 5561 5563 5565 5567 5571 5577 5578 5579 5581 5584 5588 5593 5597 5603 5609 5616 5622 5629 5636 5644 5652 5660 5667 5674 5681 5687 5694 5700 5705 5711 5716 5720 5725 5729 5734 5739 5743 5746 5750 5753 5756 5758 5760 5763 5765 5767 5770 5772 5775 5777 5779 5780 5782 5784 5785 5786 5788 5789 5791 5791 5790 5791 5792 5792 5793 5794 5796 5798 5798 5798 5798 5799 5799 5799 5798 5797 5796 5796 5795 5793 5791 5790 5789 5787 5786 5784 5781 5780 5778